User: anonymous   Login
Location: Vancouver
(49.2500°N, 123.1330°W)
Time: 12:14:01
(UTC-07:00)
Language:

Cosmos 1408 Rocket - Orbit

View from above orbital plane
View from above orbital plane
View from above satellite
View from above satellite

Ground track
Ground track

The orbit data is extracted from the following two-line orbital elements,

1 13553U 82092B   15245.73847459 +.00000172 +00000-0 +17676-4 0  9993
2 13553 082.5690 122.8275 0022668 046.8438 014.1645 14.83940230759032
Epoch (UTC): 02 September 2015 17:43:24
Eccentricity: 0.0022668
inclination: 82.5690°
perigee height: 601 km
apogee height: 633 km
right ascension of ascending node: 122.8275°
argument of perigee: 46.8438°
revolutions per day: 14.83940230
mean anomaly at epoch: 14.1645°
orbit number at epoch: 75903

The dashed part of the orbit path shows where the satellite is in the earth's shadow,  

DLR